Location: Caltech
(34.1382°N, 118.1253°W)
Time: 23:49:29
(UTC-07:00)

Meteor 2-4 Rocket - Visible Passes

Search period start: 27 April 2015 00:00
Search period end: 07 May 2015 00:00
Orbit: 800 x 908 km, 81.2° (Epoch: 27 April)

Date Brightness Start Highest point End Pass type
(mag) Time Alt. Az. Time Alt. Az. Time Alt. Az.
27 Apr 6.1 00:14:52 17° NNE 00:14:52 17° NNE 00:16:09 10° NNE visible
27 Apr 6.2 01:56:57 14° NW 01:56:57 14° NW 01:58:07 10° NNW visible
28 Apr 6.1 00:03:51 17° NNE 00:03:51 17° NNE 00:05:09 10° NNE visible
28 Apr 6.1 01:45:56 15° NNW 01:45:56 15° NNW 01:47:19 10° NNW visible
28 Apr 6.0 23:52:49 17° NNE 23:52:49 17° NNE 23:54:09 10° NNE visible
29 Apr 6.1 01:34:54 16° NNW 01:34:54 16° NNW 01:36:30 10° NNW visible
29 Apr 6.0 23:41:47 17° NE 23:41:47 17° NE 23:43:08 10° NNE visible
30 Apr 6.0 01:23:51 17° NNW 01:23:51 17° NNW 01:25:40 10° NNW visible
30 Apr 6.0 23:30:44 17° NE 23:30:44 17° NE 23:32:08 10° NNE visible
01 May 6.0 01:12:47 19° NNW 01:12:47 19° NNW 01:14:50 10° NNW visible
01 May 5.9 23:19:39 17° NE 23:19:39 17° NE 23:21:07 10° NNE visible
02 May 5.9 01:01:43 20° NNW 01:01:43 20° NNW 01:03:58 10° NNW visible
02 May 5.9 23:08:33 17° NE 23:08:33 17° NE 23:10:05 10° NNE visible
03 May 5.8 00:50:37 22° NNW 00:50:37 22° NNW 00:53:07 10° NNW visible
03 May 5.8 22:57:26 17° NE 22:57:26 17° NE 22:59:02 10° NNE visible
04 May 5.7 00:39:30 24° NNW 00:39:30 24° NNW 00:42:15 10° NNW visible
04 May 5.8 22:46:18 17° NE 22:46:18 17° NE 22:48:00 10° NE visible
05 May 5.6 00:28:22 26° NNW 00:28:22 26° NNW 00:31:22 10° N visible
05 May 5.7 22:35:09 17° NE 22:35:09 17° NE 22:36:56 10° NE visible
06 May 5.5 00:17:12 28° NW 00:17:12 28° NW 00:20:30 10° N visible
06 May 5.7 22:23:58 17° NE 22:23:58 17° NE 22:25:52 10° NE visible
